When you browse on this site, cookies collect data to enhance your experience and personalize the content and advertising you see.
Visit our Privacy Policy to learn more. By continuing to use the site, you agree to this use of cookies and data.
  • In United Kingdom
  • List of Countries
  • For 7 days
  • Water Temperature
  • Weather Map
  • Weather Widgets
  • user-avatar
    Login

    Hourly Weather Kariba

    Today, 22 October, Tuesday

    Time Temperature Precipitation Wind Pressure Humidity
    00:00 +36°C° 0 mm 5 mps 719 mmHg 23%
    01:00 +35°C° 0 mm 5 mps 719 mmHg 23%
    02:00 +34°C° 0 mm 6 mps 719 mmHg 22%
    03:00 +34°C° 0 mm 5 mps 719 mmHg 22%
    04:00 +33°C° 0 mm 5 mps 719 mmHg 22%
    05:00 +32°C° 0 mm 4 mps 719 mmHg 22%
    06:00 +33°C° 0 mm 5 mps 720 mmHg 21%
    07:00 +33°C° 0 mm 5 mps 720 mmHg 20%
    08:00 +33°C° 0 mm 6 mps 720 mmHg 19%
    09:00 +35°C° 0 mm 5 mps 720 mmHg 18%
    10:00 +37°C° 0 mm 5 mps 721 mmHg 16%
    11:00 +39°C° 0 mm 5 mps 721 mmHg 15%
    12:00 +40°C° 0 mm 4 mps 720 mmHg 14%
    13:00 +41°C° 0 mm 4 mps 719 mmHg 14%
    14:00 +42°C° 0 mm 4 mps 719 mmHg 13%
    15:00 +41°C° 0 mm 4 mps 718 mmHg 13%
    16:00 +41°C° 0 mm 4 mps 718 mmHg 14%
    17:00 +41°C° 0 mm 4 mps 718 mmHg 14%
    18:00 +40°C° 0 mm 4 mps 719 mmHg 15%
    19:00 +38°C° 0 mm 4 mps 719 mmHg 16%
    20:00 +37°C° 0 mm 4 mps 719 mmHg 17%
    21:00 +36°C° 0 mm 4 mps 719 mmHg 18%
    22:00 +36°C° 0 mm 4 mps 719 mmHg 18%
    23:00 +35°C° 0 mm 4 mps 720 mmHg 19%

    Tomorrow, 23 October, Wednesday

    Time Temperature Precipitation Wind Pressure Humidity
    00:00 +35°C° 0 mm 4 mps 719 mmHg 19%
    01:00 +34°C° 0 mm 4 mps 719 mmHg 20%
    02:00 +34°C° 0 mm 4 mps 719 mmHg 20%
    03:00 +33°C° 0 mm 5 mps 719 mmHg 21%
    04:00 +32°C° 0 mm 5 mps 719 mmHg 22%
    05:00 +30°C° 0 mm 5 mps 720 mmHg 23%
    06:00 +32°C° 0 mm 6 mps 720 mmHg 22%
    07:00 +32°C° 0 mm 7 mps 720 mmHg 20%
    08:00 +33°C° 0 mm 8 mps 721 mmHg 19%
    09:00 +34°C° 0 mm 8 mps 721 mmHg 18%
    10:00 +37°C° 0 mm 8 mps 721 mmHg 17%
    11:00 +38°C° 0 mm 7 mps 721 mmHg 16%
    12:00 +39°C° 0 mm 7 mps 720 mmHg 15%
    13:00 +40°C° 0 mm 6 mps 720 mmHg 14%
    14:00 +41°C° 0 mm 6 mps 719 mmHg 14%
    15:00 +41°C° 0 mm 5 mps 719 mmHg 14%
    16:00 +40°C° 0 mm 5 mps 719 mmHg 14%
    17:00 +40°C° 0 mm 5 mps 719 mmHg 15%
    18:00 +38°C° 0 mm 4 mps 719 mmHg 16%
    19:00 +37°C° 0 mm 4 mps 719 mmHg 17%
    20:00 +36°C° 0 mm 4 mps 720 mmHg 18%
    21:00 +35°C° 0 mm 4 mps 720 mmHg 18%
    22:00 +35°C° 0 mm 4 mps 720 mmHg 19%
    23:00 +34°C° 0 mm 5 mps 720 mmHg 20%

    Day after tomorrow, 24 October, Thursday

    Time Temperature Precipitation Wind Pressure Humidity
    00:00 +33°C° 0 mm 5 mps 720 mmHg 20%
    01:00 +33°C° 0 mm 5 mps 720 mmHg 21%
    02:00 +32°C° 0 mm 5 mps 720 mmHg 22%
    03:00 +30°C° 0 mm 5 mps 720 mmHg 23%
    04:00 +30°C° 0 mm 5 mps 720 mmHg 24%
    05:00 +29°C° 0 mm 5 mps 720 mmHg 25%
    06:00 +29°C° 0 mm 6 mps 721 mmHg 25%
    07:00 +30°C° 0 mm 6 mps 721 mmHg 25%
    08:00 +30°C° 0 mm 6 mps 722 mmHg 24%
    09:00 +33°C° 0 mm 6 mps 722 mmHg 21%
    10:00 +35°C° 0 mm 6 mps 722 mmHg 18%
    11:00 +38°C° 0 mm 6 mps 722 mmHg 16%
    12:00 +38°C° 0 mm 6 mps 721 mmHg 15%
    13:00 +39°C° 0 mm 5 mps 721 mmHg 14%
    14:00 +40°C° 0 mm 5 mps 720 mmHg 14%
    15:00 +39°C° 0 mm 5 mps 720 mmHg 14%
    16:00 +38°C° 0 mm 4 mps 720 mmHg 14%
    17:00 +38°C° 0 mm 4 mps 720 mmHg 14%
    18:00 +37°C° 0 mm 4 mps 720 mmHg 15%
    19:00 +36°C° 0 mm 4 mps 720 mmHg 16%
    20:00 +35°C° 0 mm 3 mps 721 mmHg 17%
    21:00 +34°C° 0 mm 4 mps 721 mmHg 17%
    22:00 +34°C° 0 mm 4 mps 721 mmHg 18%
    23:00 +33°C° 0 mm 4 mps 721 mmHg 19%

    25 October, Friday

    Time Temperature Precipitation Wind Pressure Humidity
    00:00 +33°C° 0 mm 5 mps 721 mmHg 20%
    01:00 +32°C° 0 mm 5 mps 721 mmHg 21%
    02:00 +32°C° 0 mm 6 mps 721 mmHg 23%
    03:00 +30°C° 0 mm 6 mps 721 mmHg 24%
    04:00 +29°C° 0 mm 5 mps 721 mmHg 26%
    05:00 +28°C° 0 mm 5 mps 721 mmHg 27%
    06:00 +29°C° 0 mm 6 mps 722 mmHg 26%
    07:00 +29°C° 0 mm 6 mps 722 mmHg 25%
    08:00 +29°C° 0 mm 7 mps 723 mmHg 24%
    09:00 +32°C° 0 mm 7 mps 723 mmHg 22%
    10:00 +33°C° 0 mm 6 mps 723 mmHg 20%
    11:00 +35°C° 0 mm 6 mps 723 mmHg 18%
    12:00 +36°C° 0 mm 6 mps 722 mmHg 17%
    13:00 +37°C° 0 mm 5 mps 721 mmHg 16%
    14:00 +39°C° 0 mm 5 mps 720 mmHg 15%
    15:00 +37°C° 0 mm 5 mps 720 mmHg 15%
    16:00 +37°C° 0 mm 5 mps 720 mmHg 15%
    17:00 +37°C° 0 mm 5 mps 720 mmHg 15%
    18:00 +36°C° 0 mm 5 mps 721 mmHg 16%
    19:00 +35°C° 0 mm 5 mps 721 mmHg 18%
    20:00 +34°C° 0 mm 5 mps 722 mmHg 19%
    21:00 +33°C° 0 mm 5 mps 722 mmHg 20%
    22:00 +32°C° 0 mm 6 mps 722 mmHg 20%
    23:00 +32°C° 0 mm 6 mps 722 mmHg 21%

    26 October, Saturday

    Time Temperature Precipitation Wind Pressure Humidity
    00:00 +30°C° 0 mm 6 mps 722 mmHg 21%
    01:00 +30°C° 0 mm 6 mps 722 mmHg 21%
    02:00 +29°C° 0 mm 6 mps 722 mmHg 21%
    03:00 +28°C° 0 mm 6 mps 722 mmHg 21%
    04:00 +27°C° 0 mm 6 mps 722 mmHg 21%
    05:00 +26°C° 0 mm 6 mps 722 mmHg 21%
    06:00 +27°C° 0 mm 6 mps 723 mmHg 20%
    07:00 +27°C° 0 mm 6 mps 723 mmHg 20%
    08:00 +28°C° 0 mm 7 mps 723 mmHg 19%
    09:00 +29°C° 0 mm 7 mps 723 mmHg 18%
    10:00 +32°C° 0 mm 6 mps 723 mmHg 16%
    11:00 +34°C° 0 mm 6 mps 723 mmHg 14%
    12:00 +34°C° 0 mm 6 mps 723 mmHg 14%
    13:00 +35°C° 0 mm 6 mps 722 mmHg 13%
    14:00 +36°C° 0 mm 6 mps 721 mmHg 12%
    15:00 +35°C° 0 mm 6 mps 721 mmHg 12%
    16:00 +35°C° 0 mm 6 mps 721 mmHg 12%
    17:00 +34°C° 0 mm 7 mps 721 mmHg 12%
    18:00 +33°C° 0 mm 6 mps 721 mmHg 13%
    19:00 +32°C° 0 mm 5 mps 721 mmHg 15%
    20:00 +30°C° 0 mm 4 mps 722 mmHg 16%
    21:00 +30°C° 0 mm 4 mps 722 mmHg 16%
    22:00 +29°C° 0 mm 5 mps 722 mmHg 17%
    23:00 +28°C° 0 mm 5 mps 722 mmHg 17%

    27 October, Sunday

    Time Temperature Precipitation Wind Pressure Humidity
    00:00 +28°C° 0 mm 5 mps 722 mmHg 19%
    01:00 +27°C° 0 mm 5 mps 721 mmHg 20%
    02:00 +27°C° 0 mm 5 mps 721 mmHg 21%
    03:00 +26°C° 0 mm 5 mps 721 mmHg 23%
    04:00 +25°C° 0 mm 5 mps 721 mmHg 24%
    05:00 +25°C° 0 mm 4 mps 722 mmHg 26%
    06:00 +25°C° 0 mm 5 mps 722 mmHg 25%
    07:00 +26°C° 0 mm 6 mps 722 mmHg 25%
    08:00 +27°C° 0 mm 6 mps 722 mmHg 24%
    09:00 +28°C° 0 mm 6 mps 722 mmHg 22%
    10:00 +30°C° 0 mm 6 mps 722 mmHg 20%
    11:00 +32°C° 0 mm 6 mps 722 mmHg 18%
    12:00 +33°C° 0 mm 6 mps 721 mmHg 17%
    13:00 +33°C° 0 mm 5 mps 720 mmHg 15%
    14:00 +34°C° 0 mm 5 mps 720 mmHg 14%
    15:00 +34°C° 0 mm 5 mps 720 mmHg 14%
    16:00 +34°C° 0 mm 5 mps 720 mmHg 14%
    17:00 +33°C° 0 mm 5 mps 720 mmHg 14%
    18:00 +32°C° 0 mm 5 mps 720 mmHg 15%
    19:00 +30°C° 0 mm 4 mps 720 mmHg 17%
    20:00 +29°C° 0 mm 4 mps 720 mmHg 18%
    21:00 +29°C° 0 mm 4 mps 721 mmHg 19%
    22:00 +28°C° 0 mm 4 mps 721 mmHg 19%
    23:00 +28°C° 0 mm 4 mps 721 mmHg 20%

    28 October, Monday

    Time Temperature Precipitation Wind Pressure Humidity
    00:00 +27°C° 0 mm 5 mps 720 mmHg 22%
    01:00 +27°C° 0 mm 5 mps 720 mmHg 23%
    02:00 +26°C° 0 mm 5 mps 720 mmHg 25%
    03:00 +26°C° 0 mm 5 mps 720 mmHg 27%
    04:00 +25°C° 0 mm 5 mps 720 mmHg 28%
    05:00 +25°C° 0 mm 5 mps 720 mmHg 30%
    06:00 +25°C° 0 mm 5 mps 721 mmHg 29%
    07:00 +26°C° 0 mm 6 mps 721 mmHg 28%
    08:00 +27°C° 0 mm 7 mps 721 mmHg 27%
    09:00 +28°C° 0 mm 7 mps 721 mmHg 24%
    10:00 +30°C° 0 mm 7 mps 721 mmHg 22%
    11:00 +33°C° 0 mm 6 mps 721 mmHg 19%
    12:00 +34°C° 0 mm 6 mps 720 mmHg 19%
    13:00 +35°C° 0 mm 5 mps 720 mmHg 18%
    14:00 +36°C° 0 mm 5 mps 719 mmHg 18%
    15:00 +36°C° 0 mm 5 mps 719 mmHg 18%
    16:00 +36°C° 0 mm 5 mps 719 mmHg 19%
    17:00 +35°C° 0 mm 5 mps 719 mmHg 19%
    18:00 +34°C° 0 mm 5 mps 719 mmHg 20%
    19:00 +33°C° 0 mm 5 mps 720 mmHg 21%
    20:00 +33°C° 0 mm 4 mps 720 mmHg 22%
    21:00 +32°C° 0 mm 5 mps 720 mmHg 22%
    22:00 +32°C° 0 mm 5 mps 720 mmHg 21%
    23:00 +30°C° 0 mm 5 mps 720 mmHg 21%
    Show more